Accueil
METAR-TAF:

METAR-TAF

Aéroports :

Greenwood County Airport

Greenwood, Caroline du Sud, États-Unis

latitude: 34-14-50N, longitude: 082-09-17W, altitude: 192 m

Observation

Le bulletin a été fait il y a 34 minutes, à 11:56 UTC
Vent calme
Température 12°C
Humidité 76%
Pression 1016 hPa
Visibilité: 16.1 km
Ciel clair

METAR: KGRD 041156Z AUTO 00000KT 10SM CLR 12/08 A2999 RMK AO2 SLP153 T01170078 10128 20106 53018

Heure: 08:30 (12:30 UTC)


TAF: absent

Observations et prévisions météorologiques de plus de 4000 aéroports (messages METAR et TAF).

Les stations disponibles sont représentées par des disques jaunes et rouges sur la carte.

Passer la souris dessus pour voir le nom de la station.

Cliquer dessus pour voir les observations et prévisions météorologiques.

Pour changer de carte: cliquez sur les boutons verts avec une croix noire pour zoomer, sur le bouton vert avec un tiret pour effectuer un zoom arrière, ou sur les flèches vertes pour les cartes adjacentes.


METAR-TAF: